Wind_Speed
15 13 11 10 12 16 20 24 28 31 33 34 32 30 28 26 25 25 25 24 23 22 21 20 19 18 16 15 15 15 16 16 17 19 21 22 23 24 24 24 23 21
13 12 10 10 12 15 19 24 28 31 33 33 31 29 27 26 24 24 24 23 23 22 20 19 17 16 15 14 13 13 13 14 15 16 18 19 20 22 22 23 23 21
11 10 9 9 11 14 18 22 27 31 33 32 30 27 26 25 24 23 23 22 22 21 19 18 16 15 14 13 12 12 11 12 12 14 15 16 17 19 20 21 21 21
8 8 8 8 10 13 17 21 25 29 31 30 28 26 25 24 23 22 22 21 21 20 19 17 15 14 12 11 10 9 9 9 10 11 12 13 14 15 17 18 19 20
4 5 6 7 9 12 16 20 24 28 29 28 26 25 24 23 22 21 21 20 20 19 18 17 15 13 11 10 8 7 7 7 7 8 9 10 11 12 13 15 17 18
0 3 5 7 9 12 16 19 23 26 27 26 25 23 23 22 21 20 20 20 19 19 18 16 15 13 11 10 8 6 5 4 4 4 5 6 7 9 10 11 13 14
4 4 5 7 9 12 15 19 23 25 26 25 24 22 22 22 21 20 19 19 19 19 18 17 15 14 12 10 9 7 5 4 2 1 1 3 4 5 7 8 9 11
8 7 7 9 10 13 16 19 23 25 26 25 24 22 21 21 21 20 20 19 19 19 18 18 17 15 14 12 10 9 7 6 4 3 3 3 3 3 4 5 6 7
12 11 10 10 11 13 16 19 23 25 26 26 25 23 22 21 21 20 20 20 20 19 19 18 18 17 16 15 13 11 10 9 7 6 5 5 4 4 3 3 4 4
16 15 14 13 12 12 14 17 21 24 26 26 26 25 24 23 22 21 20 20 20 20 20 19 19 18 18 17 16 14 13 12 10 9 8 7 7 6 5 4 3 3
20 20 19 17 15 14 14 15 18 21 23 25 26 26 25 24 24 22 22 21 21 21 20 20 20 20 19 19 18 17 16 15 13 12 11 9 8 8 7 6 5 4
24 24 22 21 20 18 16 17 19 20 22 23 24 25 24 24 24 24 23 23 22 22 21 22 22 21 21 21 20 19 18 17 16 14 13 12 10 9 8 7 8 7
28 27 25 24 24 22 21 21 21 21 22 23 24 24 23 23 24 24 24 23 23 22 22 23 23 23 24 23 22 21 19 18 17 16 15 14 13 11 9 9 10 11
33 31 29 27 26 26 25 24 23 22 22 23 24 25 24 23 24 25 24 23 23 22 22 25 26 26 25 24 22 22 21 19 19 18 17 16 15 14 13 13 15 15
38 36 33 30 29 28 28 28 26 25 24 25 25 25 25 25 26 27 25 24 24 23 23 26 28 27 26 25 24 24 22 21 20 20 19 19 18 17 16 17 18 17
41 39 36 34 32 31 31 31 30 29 28 28 27 26 26 27 28 28 27 26 26 25 25 27 30 29 27 27 27 25 24 23 23 22 22 21 21 20 20 20 20 19
44 42 39 37 36 35 34 34 34 33 33 32 31 30 29 29 29 29 28 28 28 26 26 28 31 31 29 29 29 27 26 26 26 25 24 23 23 23 23 23 21 20
48 45 43 41 40 38 37 37 37 37 36 36 35 34 32 31 31 29 29 29 28 26 27 28 28 29 31 31 30 29 28 28 28 27 26 24 24 24 24 23 22 20
52 48 45 44 42 42 41 41 41 40 39 38 38 37 36 35 34 32 31 31 29 28 29 30 28 29 31 31 31 30 30 29 29 28 26 25 25 24 24 23 22 21
53 51 48 47 46 45 45 45 44 43 42 42 41 40 39 38 38 36 35 35 33 30 31 33 33 32 32 32 32 32 31 31 30 29 28 27 26 26 26 25 24 24
53 54 53 53 51 49 48 49 49 48 47 45 44 43 42 42 42 40 38 38 36 33 35 38 38 35 34 34 35 35 34 33 32 32 31 30 29 29 28 28 27 27
56 57 58 59 56 53 52 53 53 52 51 49 47 46 45 45 45 43 41 40 38 37 39 41 39 37 37 37 38 38 37 36 35 35 35 34 32 32 31 30 30 31
62 61 62 63 61 57 56 56 56 56 55 53 51 49 48 48 47 46 44 44 42 42 44 43 40 39 38 39 40 40 39 39 39 39 39 38 37 36 35 34 33 34
70 67 66 65 65 62 60 59 59 58 58 56 54 53 51 50 50 49 48 47 46 46 47 45 43 42 41 40 42 43 41 41 41 42 42 42 42 40 38 37 38 38
74 72 70 68 68 67 65 63 62 61 60 59 57 56 55 53 53 52 51 49 48 47 48 47 45 45 45 45 45 45 45 44 44 44 45 45 45 44 42 42 42 43
75 74 73 71 70 69 69 68 66 65 64 62 61 59 58 57 56 55 54 52 50 50 50 49 47 46 47 49 50 49 48 47 47 47 48 49 48 47 48 48 47 47
Wind_Direction
42 52 70 93 116 130 138 141 143 144 146 146 145 144 143 144 143 143 142 140 138 136 133 130 127 122 118 111 106 100 94 87 81 76 72 67 65 63 63 63 64 67
45 52 69 93 116 132 141 145 148 149 149 149 148 148 148 149 148 148 147 146 144 142 139 137 134 129 124 118 111 104 97 91 85 79 73 68 64 62 61 61 62 64
50 56 71 95 118 134 144 149 153 154 153 152 151 152 154 154 154 154 153 152 151 148 147 145 143 137 132 125 117 109 103 96 88 81 75 69 64 60 59 59 59 60
51 63 78 102 122 137 148 154 158 158 157 156 156 157 159 159 159 160 160 160 158 157 155 154 152 147 141 134 125 117 108 99 90 83 75 69 63 58 56 55 56 57
50 74 90 111 131 143 152 158 162 163 162 161 161 162 164 166 166 166 168 168 168 166 165 164 163 160 155 149 142 133 122 108 94 82 73 66 61 55 52 51 52 54
352 115 115 126 141 151 158 163 166 168 167 167 167 168 171 173 174 174 175 177 178 177 176 176 176 175 173 170 166 161 151 132 107 83 66 57 53 48 45 44 47 51
224 191 161 150 152 159 165 169 172 174 175 174 174 175 177 179 182 183 185 185 187 187 187 188 189 190 191 191 190 190 189 184 170 113 30 26 29 32 33 36 41 45
221 213 193 174 166 168 172 175 178 180 181 182 183 183 184 186 189 191 193 194 195 196 198 199 200 202 205 208 212 215 217 221 230 253 281 301 327 346 5 18 28 37
218 219 213 199 184 178 178 180 183 186 187 189 191 192 192 193 195 196 198 201 203 205 207 208 210 212 215 219 224 230 235 238 243 254 266 273 282 294 313 336 357 19
215 219 218 209 201 197 191 187 188 191 194 196 197 198 199 200 200 201 202 204 207 211 214 217 218 220 223 227 232 237 243 246 248 252 258 261 263 270 282 294 306 325
214 218 218 214 210 208 204 199 196 196 199 201 203 205 205 205 205 205 206 208 211 215 219 222 225 227 229 232 236 239 243 245 246 248 250 251 253 259 266 270 275 281
218 219 220 220 220 215 212 212 208 203 201 203 206 208 208 209 209 208 209 212 216 219 223 225 228 231 232 234 236 237 239 241 243 244 245 244 246 250 256 264 270 273
223 223 222 220 221 218 215 218 217 213 209 206 206 208 210 212 212 211 211 213 216 221 226 230 230 232 233 233 234 236 237 239 240 241 242 241 240 239 242 252 260 263
226 225 224 220 220 220 219 220 220 219 218 215 212 212 213 212 212 214 215 215 215 217 227 233 232 232 234 234 235 236 236 236 237 238 238 238 236 233 233 239 245 251
227 225 225 222 222 224 226 225 223 222 222 222 220 218 217 213 212 215 217 216 216 215 223 235 236 233 233 235 236 236 234 234 233 233 233 234 235 235 237 240 243 248
228 225 225 224 223 226 229 227 225 224 223 224 224 223 222 220 217 217 215 216 219 216 218 231 238 235 232 233 235 234 234 234 234 233 232 234 236 238 241 243 244 248
230 228 226 225 225 227 229 228 227 226 226 226 227 226 226 225 225 222 219 221 224 220 218 227 233 232 232 234 234 234 234 236 237 237 236 238 239 240 241 244 246 248
229 229 228 227 227 228 230 231 230 229 228 229 230 230 228 228 228 227 227 230 230 226 226 232 234 232 234 236 236 236 236 237 238 239 239 240 242 243 245 247 248 247
227 228 230 230 230 230 230 233 233 232 230 230 232 232 230 229 230 230 233 236 235 232 235 239 237 234 236 238 239 239 238 237 238 239 239 239 240 243 245 246 247 246
227 229 232 233 233 231 231 233 234 234 233 231 231 232 231 231 231 233 236 237 236 235 239 242 239 235 236 239 240 241 240 239 240 240 239 238 238 240 242 242 243 243
230 231 233 234 234 233 233 235 235 235 235 234 233 232 233 234 235 236 237 237 236 235 238 241 241 239 239 240 241 243 243 242 243 244 242 241 240 240 242 242 241 242
233 232 233 235 235 233 233 235 237 237 237 237 236 235 235 236 238 238 238 238 238 238 239 241 242 242 243 243 242 244 246 246 247 248 247 246 243 241 243 244 243 243
233 233 233 234 236 235 233 234 236 238 239 239 239 239 239 239 239 239 239 239 241 242 243 243 243 243 245 246 245 246 248 249 250 251 251 251 249 246 245 245 245 245
232 233 233 234 235 235 234 234 235 237 239 240 241 241 241 241 240 241 241 242 243 244 245 246 245 246 248 249 248 248 248 249 250 251 252 253 253 252 250 248 247 247
232 232 232 233 234 236 236 236 237 237 238 240 241 242 242 242 242 243 244 244 245 246 247 249 249 249 251 253 252 251 250 250 251 252 252 253 253 254 253 252 249 247
232 232 233 233 234 235 237 238 239 239 239 240 241 241 241 241 242 244 244 245 247 249 249 249 249 251 254 256 255 253 253 253 254 254 255 254 254 254 254 254 252 249
Height
10980 10979 10979 10979 10979 10979 10979 10980 10981 10982 10983 10985 10986 10988 10990 10991 10993 10995 10996 10997 10998 10999 11000 11001 11002 11003 11004 11004 11005 11005 11005 11005 11005 11005 11005 11005 11004 11004 11003 11003 11003 11003
10982 10981 10981 10980 10981 10981 10981 10982 10983 10984 10985 10986 10988 10989 10991 10992 10994 10995 10997 10998 10999 11000 11001 11002 11003 11004 11005 11005 11006 11006 11006 11006 11006 11006 11006 11006 11006 11006 11005 11005 11005 11005
10984 10983 10983 10982 10982 10983 10983 10984 10984 10985 10986 10987 10989 10990 10992 10993 10994 10996 10997 10999 11000 11001 11002 11003 11004 11005 11005 11006 11006 11007 11007 11007 11007 11007 11007 11007 11007 11007 11007 11007 11007 11007
10986 10985 10984 10984 10984 10984 10985 10985 10986 10987 10988 10989 10990 10991 10993 10994 10995 10997 10998 10999 11000 11002 11003 11004 11005 11005 11006 11007 11007 11008 11008 11008 11008 11008 11009 11009 11009 11009 11009 11009 11008 11008
10987 10987 10986 10986 10986 10986 10986 10987 10988 10989 10990 10990 10991 10993 10994 10995 10996 10998 10999 11000 11001 11002 11003 11004 11005 11006 11006 11007 11008 11008 11009 11009 11009 11009 11010 11010 11010 11010 11010 11010 11010 11010
10988 10988 10987 10987 10987 10987 10988 10988 10989 10990 10991 10992 10993 10994 10995 10996 10997 10999 11000 11001 11002 11003 11004 11005 11006 11006 11007 11008 11008 11009 11009 11010 11010 11010 11010 11011 11011 11011 11011 11011 11011 11011
10989 10988 10988 10988 10988 10988 10989 10989 10990 10991 10992 10993 10993 10995 10996 10997 10998 10999 11000 11002 11003 11004 11005 11006 11006 11007 11008 11008 11009 11009 11010 11010 11010 11011 11011 11011 11012 11012 11012 11012 11012 11012
10988 10988 10988 10988 10988 10989 10989 10990 10990 10991 10992 10993 10994 10995 10996 10997 10998 11000 11001 11002 11003 11004 11005 11006 11007 11007 11008 11009 11009 11010 11010 11010 11011 11011 11011 11012 11012 11012 11013 11013 11013 11012
10988 10989 10989 10989 10989 10989 10989 10989 10990 10991 10992 10992 10994 10995 10996 10997 10998 11000 11001 11002 11003 11004 11005 11006 11007 11008 11008 11009 11009 11010 11010 11011 11011 11011 11012 11012 11012 11013 11013 11013 11013 11013
10988 10988 10989 10989 10990 10990 10990 10990 10990 10991 10991 10992 10993 10994 10995 10996 10997 10999 11000 11002 11003 11004 11005 11006 11007 11008 11008 11009 11009 11009 11010 11010 11011 11011 11012 11012 11012 11013 11013 11013 11013 11013
10986 10987 10988 10988 10988 10988 10990 10991 10991 10991 10992 10993 10994 10994 10994 10995 10996 10997 10999 11000 11002 11003 11005 11006 11007 11007 11008 11008 11008 11009 11009 11010 11010 11011 11011 11012 11012 11012 11013 11013 11013 11013
10985 10985 10986 10987 10987 10988 10989 10989 10989 10990 10991 10992 10993 10994 10995 10996 10996 10996 10996 10998 11000 11002 11004 11005 11005 11006 11006 11007 11007 11007 11008 11009 11009 11010 11011 11011 11011 11012 11012 11013 11013 11013
10983 10984 10985 10986 10987 10987 10987 10987 10988 10989 10990 10991 10992 10993 10994 10995 10995 10994 10993 10994 10997 11001 11004 11004 11004 11004 11004 11004 11005 11006 11007 11008 11008 11009 11010 11010 11010 11011 11011 11011 11012 11013
10981 10982 10983 10984 10985 10986 10986 10986 10986 10987 10988 10989 10990 10991 10992 10993 10993 10992 10992 10993 10995 11000 11003 11003 11002 11002 11002 11003 11004 11004 11005 11006 11006 11007 11007 11008 11008 11009 11008 11008 11009 11010
10977 10979 10980 10981 10983 10984 10984 10984 10985 10986 10987 10987 10988 10989 10990 10990 10990 10990 10990 10992 10994 10997 11001 11002 11000 11000 11001 11002 11002 11002 11002 11003 11003 11004 11004 11005 11006 11006 11006 11006 11006 11007
10974 10975 10977 10978 10979 10980 10981 10982 10983 10983 10984 10985 10985 10986 10987 10987 10987 10988 10988 10990 10992 10994 10996 10997 10998 10998 10999 10999 10998 10999 11000 11000 11000 11001 11001 11002 11003 11003 11004 11004 11004 11005
10970 10971 10973 10974 10975 10977 10978 10979 10979 10980 10981 10982 10983 10983 10984 10985 10986 10986 10987 10988 10990 10991 10990 10990 10993 10995 10996 10996 10996 10996 10997 10997 10997 10998 10999 10999 11000 11001 11001 11001 11002 11003
10964 10967 10968 10969 10970 10972 10974 10975 10975 10977 10978 10979 10980 10981 10982 10983 10984 10985 10986 10987 10988 10989 10988 10987 10990 10992 10993 10993 10993 10993 10994 10994 10994 10994 10996 10997 10997 10998 10999 10999 11000 11000
10959 10961 10962 10963 10965 10967 10969 10971 10971 10973 10975 10976 10977 10978 10980 10981 10981 10983 10984 10985 10986 10987 10987 10986 10988 10989 10989 10990 10991 10991 10991 10991 10990 10991 10992 10993 10994 10995 10996 10996 10997 10997
10952 10955 10957 10958 10960 10962 10964 10966 10967 10968 10970 10971 10972 10974 10976 10977 10978 10980 10981 10982 10984 10986 10986 10984 10983 10984 10985 10986 10987 10988 10988 10988 10988 10988 10989 10990 10991 10991 10992 10993 10993 10993
10945 10947 10950 10951 10953 10957 10960 10961 10962 10963 10964 10966 10968 10970 10972 10973 10974 10976 10977 10978 10981 10983 10981 10977 10979 10981 10982 10983 10983 10984 10985 10986 10986 10986 10986 10987 10987 10988 10988 10989 10990 10990
10937 10939 10942 10943 10946 10951 10954 10955 10956 10957 10959 10961 10963 10965 10967 10968 10970 10972 10973 10974 10976 10977 10974 10973 10976 10979 10979 10979 10980 10981 10982 10983 10983 10983 10983 10983 10984 10985 10985 10985 10986 10986
10930 10932 10934 10937 10939 10943 10946 10948 10950 10951 10953 10955 10957 10960 10962 10964 10965 10967 10968 10970 10971 10971 10970 10971 10973 10974 10974 10975 10976 10977 10978 10979 10979 10979 10979 10979 10980 10981 10981 10982 10982 10981
10921 10925 10928 10931 10933 10936 10939 10942 10943 10945 10947 10950 10952 10954 10957 10958 10960 10962 10963 10964 10965 10966 10966 10967 10969 10970 10970 10971 10972 10973 10974 10974 10974 10974 10974 10975 10975 10976 10978 10978 10977 10976
10914 10918 10922 10925 10927 10930 10932 10934 10936 10938 10940 10943 10946 10948 10950 10952 10954 10955 10957 10958 10959 10961 10962 10963 10964 10965 10965 10966 10967 10968 10969 10969 10969 10969 10969 10969 10970 10971 10973 10972 10971 10971
10908 10913 10916 10918 10922 10924 10926 10927 10929 10930 10933 10935 10938 10940 10943 10945 10947 10948 10950 10952 10953 10955 10956 10957 10958 10959 10960 10961 10962 10963 10963 10964 10963 10963 10963 10963 10964 10965 10965 10965 10964 10965